Wind_Speed
20 21 17 13 9 5 4 4 6 6 7 11 16 21 22 24 25 26 27 27 23 20 16 14 11 8 8 6 4 5 5 7 9 11 15 17 17 20 23 24 26 27 27
23 25 22 18 13 8 7 8 12 11 8 7 6 9 13 16 18 20 21 20 20 19 16 16 12 11 11 8 7 5 6 9 9 8 10 14 15 16 17 18 20 22 26
26 29 22 19 14 13 12 8 10 10 10 10 14 12 9 12 16 17 16 16 18 18 18 16 18 17 14 11 8 10 10 10 12 15 15 15 16 17 17 19 20 22 23
29 29 26 19 18 12 14 17 18 18 18 21 21 16 12 9 11 13 15 14 18 14 15 17 19 19 19 20 18 15 16 17 16 16 19 15 14 24 25 22 21 21 26
30 30 28 24 21 22 21 22 22 21 24 26 27 23 19 13 12 8 14 13 12 12 13 18 25 27 24 32 32 29 25 22 21 22 23 25 30 31 28 27 29 28 30
26 32 30 26 25 25 25 26 26 24 21 23 24 24 26 17 15 13 10 13 16 19 21 32 40 46 38 37 46 39 32 29 32 28 38 37 33 32 32 31 28 29 31
22 20 24 27 21 20 18 17 19 23 22 21 19 19 21 28 26 22 18 9 30 53 45 43 33 49 48 48 51 49 44 48 49 51 50 51 44 37 34 36 34 37 39
17 16 14 12 13 16 21 24 27 31 30 29 25 23 24 27 35 37 38 44 52 38 59 52 44 46 42 55 60 55 56 53 51 43 43 47 48 38 39 38 39 41 40
18 11 8 11 15 20 26 29 28 29 30 30 30 26 24 29 35 44 48 53 45 51 60 62 55 42 39 45 50 50 55 51 45 46 49 43 40 38 39 40 39 38 33
16 13 16 20 26 25 27 28 25 24 24 26 26 26 26 27 35 42 47 54 58 59 60 61 60 59 47 43 44 42 47 46 48 42 40 40 39 38 40 42 43 40 41
20 18 20 25 24 24 21 20 19 20 21 24 25 26 26 29 32 38 44 48 53 60 66 66 66 64 59 56 50 47 47 46 45 45 40 40 42 42 42 44 45 39 43
27 26 25 25 23 21 22 23 21 23 25 25 27 28 27 28 32 37 41 46 48 52 58 63 66 67 70 71 67 55 47 42 43 43 45 45 44 44 45 46 46 46 48
28 28 29 27 25 23 21 20 20 22 24 26 27 30 32 32 31 36 34 40 50 53 53 59 65 68 72 73 73 74 67 64 61 61 64 50 48 47 47 46 55 55 55
28 29 28 27 27 26 25 26 29 29 29 30 29 31 33 35 34 35 40 41 42 49 54 56 60 64 66 63 63 66 69 70 66 71 71 67 69 70 70 67 65 64 57
27 27 28 27 27 29 30 32 33 34 35 36 36 36 37 38 39 40 39 42 44 46 50 53 55 56 58 59 58 60 62 59 58 61 59 65 71 67 68 69 71 67 65
29 29 27 28 28 31 34 37 39 40 42 42 43 42 40 40 42 43 42 43 44 46 50 52 54 55 55 52 52 54 57 57 56 53 52 52 56 59 60 59 56 59 55
28 29 29 30 33 36 39 41 45 47 49 48 47 46 42 42 42 43 46 46 45 45 48 52 53 53 54 54 53 53 51 52 55 56 55 53 53 55 57 57 57 57 55
30 30 31 33 34 37 40 43 47 50 49 50 48 45 44 46 45 44 45 47 50 50 49 51 52 53 55 55 56 56 56 54 52 52 54 54 54 55 55 55 56 56 55
34 35 36 35 37 42 45 48 47 47 47 49 49 47 47 49 49 47 48 48 50 53 54 56 56 55 54 55 55 56 57 58 58 56 54 53 55 56 58 58 59 59 57
37 40 41 43 48 52 53 54 52 49 49 49 50 51 52 52 52 53 53 53 53 54 55 54 57 60 60 58 59 58 56 56 56 57 59 60 59 57 58 60 60 61 59
41 47 52 54 57 57 56 53 50 49 50 53 54 56 56 54 56 55 54 54 55 55 56 58 61 62 62 64 63 61 61 60 59 59 57 57 56 56 59 61 61 61 61
51 54 53 55 54 52 51 49 51 53 54 56 58 58 59 58 55 55 55 57 60 63 64 65 66 68 69 70 69 67 66 64 64 63 61 59 58 56 56 57 56 55 56
47 48 49 49 49 49 52 54 55 56 58 58 59 59 56 57 58 59 62 64 66 67 66 66 67 69 70 70 70 70 70 70 68 66 64 62 59 58 57 56 56 54 53
54 51 50 52 53 54 56 57 59 60 60 59 58 57 59 61 64 66 67 67 67 68 68 68 68 66 67 68 68 66 65 67 67 65 65 62 61 61 60 59 59 56 53
53 56 57 57 57 58 59 61 60 58 57 57 60 62 63 65 67 68 68 70 72 73 72 69 66 63 62 59 58 60 59 61 63 64 63 61 60 59 57 61 59 58 55
55 54 55 56 57 60 60 58 57 58 61 62 63 65 66 68 70 72 74 76 77 77 75 68 64 62 57 54 49 52 51 52 52 53 54 54 54 56 59 60 59 56 56
Wind_Direction
198 186 192 193 206 215 259 255 303 285 275 255 254 256 258 257 254 252 254 257 249 256 276 281 292 320 339 332 318 301 295 291 301 280 267 270 278 282 279 278 277 278 279
215 205 204 213 218 250 249 268 286 281 277 279 281 282 268 261 255 243 249 247 246 253 273 276 281 288 301 306 303 292 305 314 309 300 298 286 282 290 294 298 296 294 294
210 211 216 227 241 255 267 292 310 287 271 275 303 314 296 274 253 241 241 243 232 241 259 278 283 275 268 275 294 311 309 322 319 313 304 294 294 300 300 303 304 301 303
207 221 232 245 258 277 282 287 290 286 280 277 284 282 285 286 260 240 228 227 231 242 257 282 294 280 276 273 265 268 279 277 284 300 304 308 306 315 309 304 311 312 315
218 228 250 261 267 276 284 287 288 293 291 283 276 268 259 267 234 229 220 211 226 230 259 281 291 279 296 284 275 263 261 268 280 286 289 292 291 299 307 303 303 302 312
233 234 242 255 272 274 282 286 291 294 287 285 280 267 255 241 213 219 196 218 215 237 240 255 249 265 256 259 263 267 260 272 277 279 293 286 289 286 287 290 290 298 301
248 254 263 261 258 265 274 288 296 290 288 291 283 266 248 226 223 215 200 199 279 261 245 245 249 247 240 247 257 260 262 270 277 272 283 278 279 276 276 277 280 284 291
217 223 227 249 264 269 276 281 294 290 281 283 283 267 249 237 226 226 217 216 243 229 245 248 254 258 257 247 251 259 263 266 276 270 272 267 276 264 271 273 281 284 290
200 226 257 287 301 298 295 290 291 289 282 290 289 282 263 246 237 233 231 226 238 232 239 246 244 257 267 261 259 260 256 261 268 269 273 272 268 264 268 277 284 285 285
237 272 301 308 309 303 302 297 289 291 289 286 281 279 271 257 245 242 246 241 235 243 249 245 246 251 255 270 270 269 265 270 266 265 265 268 269 272 275 278 281 285 289
250 271 293 299 295 292 287 282 281 284 286 288 283 275 268 262 256 252 253 253 250 247 249 252 253 253 258 254 263 271 273 272 270 269 266 269 272 274 275 279 286 284 288
249 263 284 291 287 279 284 290 296 299 299 296 296 295 291 283 270 261 260 260 261 262 257 256 259 257 259 257 260 250 257 264 268 273 274 277 274 271 272 278 282 286 289
257 272 285 286 276 273 279 285 290 292 296 297 296 291 290 289 287 281 264 262 266 265 266 262 262 262 262 263 262 258 257 256 256 258 270 270 270 272 273 274 280 282 280
268 274 271 270 268 270 278 284 290 292 292 292 294 293 293 288 287 283 282 278 269 268 269 268 266 266 267 268 270 268 268 267 264 257 260 261 266 272 278 279 280 281 276
264 264 265 262 267 276 282 287 291 292 292 292 292 294 294 293 289 282 283 285 282 276 274 274 274 273 273 272 272 272 271 268 267 267 269 268 270 273 274 275 276 277 277
267 261 261 265 273 280 282 287 291 293 294 295 295 294 293 292 291 287 282 280 283 279 278 276 276 277 277 278 278 277 273 270 268 268 265 262 262 265 267 271 272 273 275
258 264 269 277 283 286 288 291 294 294 293 293 293 293 293 288 287 289 286 284 284 283 278 276 277 277 277 278 278 278 278 274 269 266 265 265 264 264 265 264 268 271 275
273 276 279 284 288 291 294 294 291 288 286 289 289 290 291 293 295 291 286 282 283 284 282 278 276 275 274 275 276 276 276 275 274 270 265 263 262 262 264 264 266 270 274
273 275 277 278 284 288 292 297 298 292 290 292 292 294 296 298 296 294 291 288 286 285 284 282 278 275 275 274 273 273 274 272 272 271 270 266 262 261 262 264 267 269 273
269 272 274 276 279 288 292 296 298 296 296 296 298 300 299 298 297 296 294 292 289 286 284 281 279 278 275 274 275 273 272 271 271 270 268 267 265 264 264 265 267 268 271
274 279 281 283 286 288 291 295 295 295 297 298 299 299 299 298 298 295 294 292 289 288 286 285 284 280 276 275 272 271 273 272 270 269 268 268 268 267 267 266 266 267 267
278 279 280 285 289 291 293 294 295 296 298 299 299 298 297 296 294 293 292 291 290 289 288 287 284 281 278 276 272 270 269 268 270 269 267 267 268 268 266 267 266 266 264
282 286 288 288 290 291 292 295 296 297 298 297 297 297 296 296 295 295 295 294 294 293 292 290 288 285 281 276 273 270 267 266 265 267 267 265 266 269 268 268 267 264 260
285 287 289 289 290 293 295 295 295 296 297 297 296 296 297 298 298 298 299 299 299 298 296 295 292 288 284 281 277 271 265 262 262 262 263 265 266 268 268 268 268 264 256
284 286 288 290 293 295 294 295 296 296 296 297 298 300 300 299 300 301 302 301 301 300 300 299 296 294 289 284 282 274 266 261 259 260 261 262 265 267 266 265 265 261 252
287 289 291 293 293 293 295 296 297 298 299 301 301 301 301 301 302 302 303 303 304 303 302 301 299 296 291 285 274 270 265 260 259 261 262 263 265 264 264 264 260 254 245
Height
10952 10956 10958 10959 10961 10963 10964 10966 10968 10970 10973 10975 10975 10975 10975 10976 10977 10979 10981 10984 10988 10990 10992 10993 10991 10990 10989 10989 10989 10988 10988 10988 10990 10990 10991 10991 10991 10990 10989 10989 10988 10987 10986
10951 10953 10955 10957 10959 10961 10962 10963 10964 10966 10966 10968 10968 10968 10969 10969 10971 10973 10976 10980 10984 10988 10990 10989 10990 10990 10990 10990 10989 10989 10989 10989 10988 10989 10989 10989 10989 10987 10986 10985 10983 10982 10982
10948 10951 10953 10955 10956 10958 10960 10961 10961 10962 10962 10963 10964 10964 10965 10966 10967 10970 10973 10976 10979 10981 10984 10986 10986 10987 10985 10986 10986 10986 10986 10986 10986 10986 10986 10986 10985 10984 10984 10981 10980 10978 10977
10946 10949 10951 10953 10954 10955 10956 10956 10957 10958 10958 10958 10959 10960 10961 10962 10964 10967 10969 10971 10974 10980 10984 10985 10984 10984 10983 10983 10982 10980 10981 10981 10981 10982 10982 10981 10980 10979 10979 10978 10975 10973 10972
10942 10945 10947 10948 10950 10950 10950 10950 10950 10951 10951 10952 10952 10954 10956 10959 10961 10963 10966 10970 10978 10980 10984 10986 10985 10983 10980 10978 10976 10974 10973 10974 10974 10974 10974 10974 10973 10972 10972 10972 10970 10969 10966
10939 10941 10943 10944 10945 10944 10945 10944 10943 10943 10944 10944 10945 10945 10949 10953 10955 10959 10966 10971 10976 10976 10975 10975 10963 10968 10971 10965 10961 10964 10967 10968 10966 10965 10967 10967 10966 10965 10964 10963 10963 10962 10960
10935 10937 10937 10939 10939 10940 10939 10939 10938 10937 10937 10938 10937 10936 10939 10944 10948 10950 10956 10968 10967 10961 10960 10955 10951 10952 10952 10950 10953 10951 10955 10956 10956 10953 10955 10957 10956 10955 10955 10954 10953 10952 10951
10930 10931 10933 10933 10933 10934 10935 10934 10933 10932 10931 10931 10932 10932 10931 10934 10937 10937 10939 10932 10928 10931 10938 10939 10935 10933 10934 10938 10941 10940 10942 10943 10943 10941 10942 10945 10943 10945 10943 10944 10944 10943 10942
10925 10927 10928 10928 10929 10929 10928 10928 10927 10926 10924 10923 10923 10924 10924 10926 10926 10925 10924 10923 10917 10916 10920 10923 10924 10925 10927 10929 10928 10930 10929 10930 10931 10930 10930 10930 10930 10932 10933 10933 10933 10933 10932
10921 10922 10921 10921 10922 10921 10921 10921 10919 10918 10917 10916 10915 10913 10913 10915 10914 10913 10911 10910 10913 10912 10911 10912 10913 10916 10916 10912 10915 10917 10917 10919 10919 10920 10919 10919 10919 10921 10921 10921 10922 10923 10923
10916 10916 10917 10919 10918 10918 10916 10915 10914 10912 10911 10909 10907 10906 10904 10903 10903 10904 10903 10900 10900 10899 10898 10900 10900 10901 10900 10904 10907 10906 10906 10906 10907 10909 10908 10907 10908 10909 10909 10909 10908 10911 10909
10910 10912 10912 10913 10912 10910 10908 10907 10907 10906 10904 10903 10901 10898 10897 10895 10895 10895 10893 10890 10888 10885 10887 10886 10886 10886 10885 10887 10890 10899 10899 10894 10893 10893 10894 10893 10895 10895 10895 10895 10895 10897 10894
10903 10904 10905 10905 10904 10903 10902 10902 10902 10902 10899 10897 10895 10892 10888 10887 10886 10880 10882 10882 10877 10874 10874 10875 10873 10873 10875 10874 10876 10879 10883 10884 10881 10881 10880 10878 10881 10881 10880 10882 10883 10885 10880
10898 10898 10899 10899 10898 10898 10896 10896 10895 10894 10892 10890 10888 10884 10881 10877 10877 10873 10867 10865 10866 10863 10860 10859 10859 10858 10859 10860 10859 10862 10866 10866 10866 10865 10866 10867 10867 10865 10863 10862 10865 10868 10866
10892 10892 10891 10892 10891 10890 10888 10887 10886 10884 10883 10881 10878 10874 10871 10867 10865 10861 10858 10853 10851 10850 10847 10843 10842 10843 10843 10843 10843 10842 10844 10846 10846 10847 10851 10850 10849 10849 10842 10846 10845 10846 10848
10884 10885 10884 10884 10884 10883 10881 10879 10877 10875 10871 10868 10865 10863 10861 10857 10850 10847 10846 10844 10839 10836 10832 10830 10828 10826 10825 10826 10825 10824 10824 10825 10826 10829 10831 10832 10831 10831 10828 10827 10827 10826 10828
10877 10877 10876 10876 10875 10874 10873 10870 10866 10862 10858 10856 10853 10849 10847 10843 10839 10835 10831 10828 10826 10823 10819 10816 10813 10812 10810 10809 10807 10806 10804 10804 10806 10808 10809 10813 10814 10813 10813 10813 10812 10811 10811
10868 10868 10868 10867 10867 10864 10862 10859 10856 10852 10848 10843 10840 10838 10833 10826 10824 10821 10819 10815 10810 10807 10805 10802 10799 10798 10796 10794 10791 10789 10789 10788 10787 10787 10790 10793 10795 10796 10797 10797 10797 10797 10796
10859 10860 10858 10858 10855 10853 10850 10847 10843 10838 10834 10829 10825 10821 10817 10812 10808 10806 10802 10799 10796 10792 10788 10785 10783 10782 10779 10776 10775 10773 10772 10770 10769 10770 10772 10773 10776 10779 10780 10780 10780 10780 10782
10850 10848 10847 10847 10844 10840 10837 10832 10826 10822 10817 10812 10809 10806 10801 10797 10792 10788 10784 10781 10777 10773 10770 10768 10764 10761 10760 10760 10756 10755 10755 10753 10752 10751 10752 10754 10756 10760 10760 10761 10762 10763 10764
10842 10838 10833 10830 10829 10825 10821 10817 10811 10807 10803 10798 10793 10790 10784 10781 10775 10770 10766 10762 10759 10756 10753 10749 10744 10741 10739 10736 10736 10736 10734 10733 10733 10733 10733 10734 10737 10740 10740 10740 10742 10743 10745
10827 10824 10823 10817 10812 10809 10804 10801 10796 10793 10788 10782 10777 10772 10768 10764 10759 10755 10751 10747 10741 10736 10732 10728 10723 10718 10713 10711 10710 10711 10712 10713 10711 10711 10714 10716 10716 10719 10720 10721 10723 10725 10726
10812 10809 10807 10802 10798 10795 10790 10787 10781 10777 10772 10767 10761 10756 10750 10745 10741 10736 10732 10727 10721 10714 10708 10703 10698 10691 10685 10683 10681 10681 10684 10685 10687 10688 10691 10695 10696 10697 10699 10701 10703 10705 10707
10797 10795 10792 10788 10783 10780 10775 10770 10766 10760 10755 10750 10744 10739 10733 10726 10721 10716 10709 10703 10697 10690 10684 10678 10671 10665 10659 10654 10651 10651 10654 10657 10660 10664 10666 10671 10675 10676 10677 10679 10681 10684 10688
10783 10779 10775 10771 10767 10763 10758 10754 10749 10743 10738 10732 10726 10720 10714 10707 10700 10695 10689 10681 10674 10668 10660 10654 10645 10639 10632 10629 10630 10625 10626 10630 10634 10639 10644 10649 10653 10655 10656 10656 10658 10662 10667
10767 10764 10759 10755 10751 10746 10741 10736 10730 10724 10719 10713 10707 10701 10695 10687 10680 10673 10667 10659 10651 10642 10635 10628 10621 10614 10609 10606 10608 10604 10604 10607 10613 10618 10622 10626 10630 10631 10632 10633 10634 10637 10641